PRAETORIAN SDA_619

Last updated on Wed Aug 19 2026 00:03:42 GMT+0000 (Coordinated Universal Time)

1 65582U 25203T 26230.19603931 .00000058 00000+0 41898-4 0 9999 2 65582 81.3066 313.4132 0008630 30.6447 329.5212 13.83729068 47901
UTC large
Height (km)
Speed (km/s)
/
Latitude / Longitude
Inclination (degrees)
Orbital Period (minutes)
Azimuth
Elevation
Range (km)
Doppler Factor

Next 0 passes for location: London (51.5072 / 0.1276)

No passes found over London.
PRAETORIAN SDA_619